{"data":{"norad_id":65481,"epoch":"2026-09-20T21:36:55.267488Z","epoch_age_seconds":77278,"freshness":"FRESH","line1":"1 65481U 25195Z   26263.90063967  .00028057  00000+0  83758-3 0  9990","line2":"2 65481  53.1591  67.7336 0000856 104.0189 256.0909 15.34430882 59917","mean_motion":15.34430882,"eccentricity":8.56e-5,"inclination_deg":53.1591,"raan_deg":67.7336,"arg_perigee_deg":104.0189,"mean_anomaly_deg":256.0909,"bstar":0.00083758,"rev_number":5991,"period_min":93.84586929866,"perigee_km":462.0258858668,"apogee_km":463.19702200212,"semimajor_km":6840.7484539345,"source":"CELESTRAK","updated_at":"2026-09-21T09:00:35.639835Z"}}